www.pogodaiklimat.ru

Погода и климат >> Архив погоды >> Сенегал >> Колда


ПОГОДА в Колде

  • Прогноз погоды в Колде
  • Монитор погоды в Колде

АРХИВ ПОГОДЫ в Колде

Время (UTC), дата Ветер
(напр.,м/с)
 
Видим.   Явления Облачность Т
(С)
Тd
(С)
f
(%)
Тe
(С)
Тes
(С)
Комфортность P
(гПа)
Po
(гПа)
Тmin
(С)
Tmax
(С)
R
(мм)
R24
(мм)
S
(см)
09 10.07 Ю 2 10 км 8/4 400 м
[St Ci sp]
+27.6 +25.3 87 +40 +43 очень
душно
1013.2 1012.1
12 10.07 ЮЗ 3 10 км 8/4 480 м
[Cu hum Ci sp]
+32.2 +24.1 62 +44 +53 опасность
перегрева
1012.9 1011.8
15 10.07 ЮЗ 3 10 км 6/6 480 м
[Cu med, cong]
+35.0 +24.5 55 +48 +53 опасность
перегрева
1010.8 1009.7
18 10.07 ЮЗ 3 10 км 5/5 480 м
[Cu med, cong]
+34.6 +24.0 54 +46 +47 опасность
перегрева
1009.8 1008.7 +36.1
21 10.07 ЮЗ 3 8000 м зарница 4/4 400 м
[Cb cap]
+30.6 +24.8 71 +43 +43 опасность
перегрева
1011.7 1011.0
00 11.07 ЮЗ 3 8000 м 4/4 400 м
[Sc]
+38.2 +25.1 48 +52 +52 опасность
перегрева
1013.2 1012.1
03 11.07 ЮЗ 2 8000 м 8/8 600 м
[Sc]
+27.0 +25.2 90 +39 +39 очень
душно
1011.9 1010.8
06 11.07 ЮЗ 2 8000 м 5/0
[Ac trans]
+26.6 +25.2 92 +38 +38 очень
душно
1011.7 1010.6 +26.6
09 11.07 ЮЗ 3 10 км 6/6 400 м
[Sc]
+28.8 +25.3 81 +42 +44 опасность
перегрева
1012.9 1011.8
12 11.07 ЮЗ 3 10 км 6/6 400 м
[Cu med, cong]
+32.5 +24.9 64 +46 +52 опасность
перегрева
1012.9 1011.8
15 11.07 С 2 10 км 6/6 480 м
[Cu med, cong]
+35.2 +24.4 54 +48 +54 опасность
перегрева
1010.7 1009.6
18 11.07 ЮЗ 3 10 км гроза, ливневой дождь 10/10 600 м
[Cb cap]
+27.8 +26.0 90 +42 +42 опасность
перегрева
1009.9 1008.8 +36.5 24
21 11.07 штиль 0 8000 м гроза без осадков 10/6 480 м
[Cb cap As op]
+25.0 +24.4 96 +35 +35 очень
душно
1013.6 1012.5
00 12.07 штиль 0 8000 м {гроза, дождь} 9/0
[Ac As]
+25.5 +24.8 96 +36 +36 очень
душно
1013.3 1012.2 20
03 12.07 штиль 0 8000 м 8/0
[Ac As]
+25.8 +25.2 96 +37 +37 очень
душно
1012.4 1011.3
06 12.07 штиль 0 8000 м 8/0
[Ac As]
+25.5 +24.8 96 +36 +36 очень
душно
1011.7 1010.6 +24.8 44
09 12.07 штиль 0 10 км 8/6 480 м
[Sc Ac trans]
+27.0 +25.3 90 +39 +42 очень
душно
1013.1 1012.0
12 12.07 СВ 2 10 км 8/5 480 м
[Cu med, cong Ac trans]
+30.7 +25.2 73 +45 +51 опасность
перегрева
1013.2 1012.1
15 12.07 В 1 10 км 6/6 480 м
[Cu med, cong]
+33.5 +24.4 59 +46 +54 опасность
перегрева
1011.0 1009.9
18 12.07 штиль 0 10 км 6/5 480 м
[Cb calv Ci sp]
+35.5 +25.1 55 +49 +51 опасность
перегрева
1009.7 1008.6 +36.1
21 12.07 ЮЗ 2 8000 м 5/1 900 м
[Sc Ci fib]
+30.2 +25.4 76 +44 +44 опасность
перегрева
1011.3 1010.2
00 13.07 ЮЗ 2 8000 м зарница 10/4 600 м
[Cb cap Cs]
+27.7 +25.5 88 +41 +41 опасность
перегрева
1013.8 1012.7
03 13.07 штиль 0 6000 м гроза без осадков {морось} 10/5 400 м
[Cb cap Ac As]
+23.0 +22.4 96 +31 +31 очень
душно
1012.3 1011.2
06 13.07 штиль 0 8000 м 10/0
[Ac As]
+23.4 +22.4 94 +32 +32 очень
душно
1012.6 1011.5 +22.3 17
09 13.07 штиль 0 10 км 5/0
[Ac trans Ci fib]
+25.3 +23.3 89 +34 +40 очень
душно
1013.3 1012.2
12 13.07 В 1 10 км 9/0
[Cs]
+29.7 +22.9 67 +40 +59 опасность
солнечного
удара
1012.6 1011.5
15 13.07 В 1 10 км 3/3 400 м
[Cu hum]
+33.3 +23.2 56 +44 +58 опасность
перегрева
1011.6 1009.1
18 13.07 В 2 10 км 8/0
[Ac As]
+34.6 +24.7 57 +48 +49 опасность
перегрева
1010.0 1008.9 +35.0
21 13.07 Ю 2 8000 м 9/0
[Ac As]
+30.2 +25.1 74 +44 +44 опасность
перегрева
1011.5 1010.4
00 14.07 ЮЗ 2 8000 м гроза без осадков 10/1 900 м
[Cb cap Ac As]
+24.8 +23.6 93 +34 +34 очень
душно
1013.8 1012.7 15
03 14.07 ЮЗ 2 8000 м гроза без осадков 10/4 450 м
[Cb cap Ac As]
+26.0 +25.3 96 +38 +38 очень
душно
1012.3 1011.2
06 14.07 штиль 0 8000 м {гроза} 10/0
[Ac As]
+26.0 +25.7 98 +38 +38 очень
душно
1011.7 1010.6 +24.0 15
09 14.07 В 2 10 км 9/4 330 м
[St Ac As]
+26.5 +25.1 92 +38 +40 очень
душно
1013.8 1012.7
12 14.07 Ю 2 10 км 8/3 400 м
[Cu hum Ac As]
+31.8 +24.2 64 +44 +51 опасность
перегрева
1014.0 1012.9
15 14.07 Ю 4 10 км 9/5 400 м
[Cu hum Ci]
+32.0 +25.0 67 +46 +50 опасность
перегрева
1011.7 1010.6
18 14.07 ЮЗ 3 10 км 5/4 400 м
[Cu hum Ci fib]
+31.8 +25.7 70 +47 +48 опасность
перегрева
1010.8 1009.7 +32.6
21 14.07 ЮЗ 2 8000 м 4/4 400 м
[Sc]
+29.4 +26.1 82 +44 +44 опасность
перегрева
1011.8 1010.7
00 15.07 ЮЗ 2 8000 м 1/1 400 м
[Sc]
+27.5 +25.4 88 +40 +40 очень
душно
1013.3 1012.2
03 15.07 штиль 0 8000 м ясно +26.6 +25.0 91 +38 +38 очень
душно
1012.0 1010.9
06 15.07 штиль 0 8000 м 3/0
[Ac trans]
+25.8 +24.9 95 +37 +37 очень
душно
1011.8 1010.7 +25.4
09 15.07 ЮЗ 2 10 км 5/5 400 м
[Sc]
+28.0 +25.8 88 +42 +45 опасность
перегрева
1012.2 1011.1
12 15.07 ЮЗ 2 10 км 6/6 400 м
[Cu med, cong]
+32.0 +25.8 70 +47 +55 опасность
перегрева
1012.1 1011.0
15 15.07 ЮЗ 2 10 км 6/6 600 м
[Cu med, cong]
+34.8 +24.7 56 +48 +54 опасность
перегрева
1010.0 1008.9
18 15.07 ЮЗ 1 10 км 5/4 600 м
[Cu med, cong Ac trans]
+35.0 +23.7 52 +46 +48 опасность
перегрева
1009.0 1007.9 +36.0
21 15.07 ЮЗ 3 8000 м 6/0
[Ci sp]
+31.0 +25.7 73 +46 +46 опасность
перегрева
1009.2 1008.1
00 16.07 ЮЗ 2 8000 м 8/0
[Ac As]
+29.4 +25.3 79 +43 +43 опасность
перегрева
1011.0 1009.9
03 16.07 ЮЗ 3 8000 м 4/0
[Ac trans]
+28.2 +25.0 83 +41 +41 опасность
перегрева
1010.5 1009.4
06 16.07 ЮЗ 1 8000 м 6/0
[Ac trans]
+25.7 +23.8 89 +35 +35 очень
душно
1011.2 1010.1 +25.6
09 16.07 ЮЗ 3 10 км 9/4 600 м
[Sc Ac As]
+26.5 +23.6 84 +36 +37 очень
душно
1012.0 1010.9
12 16.07 ЮЗ 3 10 км 10/5 600 м
[Sc Ac As]
+26.6 +22.8 80 +35 +38 очень
душно
1012.9 1011.8
15 16.07 Ю 2 10 км 8/5 400 м
[Cu Sc Ci sp]
+30.1 +24.1 70 +42 +49 опасность
перегрева
1010.1 1009.0
18 16.07 Ю 3 10 км 6/4 400 м
[Cu hum Ac trans Ci sp]
+31.8 +23.5 62 +43 +44 опасность
перегрева
1009.8 1008.7 +32.7
21 16.07 ЮЗ 1 8000 м 6/3 400 м
[Sc Ac trans Ci sp]
+27.7 +24.0 80 +38 +38 очень
душно
1012.3 1011.2
00 17.07 Ю 2 8000 м 9/0
[Ac As]
+26.0 +23.8 88 +36 +36 очень
душно
1013.5 1012.4
03 17.07 штиль 0 8000 м 10/0
[Ac As]
+25.7 +24.0 90 +35 +35 очень
душно
1012.4 1011.3

 

Местоположение метеостанции Колда (Сенегал): широта 12.88 долгота -14.96 высота над уровнем моря 10 м.

В архиве по умолчанию представлена погода в Колде за последнюю неделю. Архивные данные за месяц целиком и за предыдущие месяцы, начиная с января 2011 года, Вы можете получить, выбрав интересующий диапазон дат из раскрывающегося списка и нажав кнопку "Ввод!".


*Определитесь, кто Вы:
робот инопланетянин человек

Внимание! Время в таблицах - всемирное. Для получения местного времени необходимо прибавить поправку, которая равна 0 ч.

Смотрите также архив погоды в соседних городах и на ближайших метеорологических станциях:

Погода в Джорджтауне (Гамбия) (75 км)
Погода в Бафате (Гвинея-Биссау) (85 км)
Погода в Бассе (Гамбия) (89 км)
Погода в Женое (Гамбия) (94 км)
Погода в Кауере (Гамбия) (100 км)
Погода в Сапу (Гамбия) (130 км)
Погода в Биссау (Гвинея-Биссау) (132 км)
Погода в Сибаноре (Гамбия) (140 км)
Погода в Кереване (Гамбия) (140 км)
Погода в Зигиншоре (Сенегал) (146 км)

Пояснения к столбцам:

Ветер - указаны скорость ветра в м/с - средняя за 10 мин, порывы в срок и между сроками (в фигурных скобках) и направление, откуда дует ветер: С - северный, СВ - северо-восточный, В - восточный, ЮВ - юго-восточный, Ю - южный, ЮЗ - юго-западный, З - западный, СЗ - северо-западный.
Видимость - горизонтальная дальность видимости в метрах или километрах. При видимости от 1 до 10 км при отсутствии осадков обычно наблюдается дымка, при ухудшении видимости до 1 км и менее - туман. В сухую погоду видимость может ухудшаться дымом, пылью или мглою.
Явления - указаны атмосферные явления, наблюдавшиеся в срок или в последний час перед сроком; фигурными скобками обозначены явления, наблюдавшиеся между сроками (за 1-3 часа до срока); квадратными скобками обозначены град или гололедные отложения с указанием их диаметра в мм.
Облачность - указаны через наклонную черту общая и нижняя облачность в баллах и высота нижней границы облаков в метрах; квадратными скобками обозначены формы облаков: Ci - перистые, Cs - перисто-слоистые, Cc - перисто-кучевые, Ac - высококучевые, As - высокослоистые, Sc - слоисто-кучевые, Ns - слоисто-дождевые, Cu - кучевые, Cb - кучево-дождевые. Подробнее классификацию облаков см. в Атласе облаков (PDF).
T - Температура воздуха - температура, измеренная на высоте 2 м над землей.
Td - Температура точки росы - температура, при понижении до которой содержащийся в воздухе водяной пар достигнет насыщения.
f - Относительная влажность воздуха - влажноcть воздуха, измеренная на высоте 2 м над землей.
Te - Эффективная температура - температура, которую ощущает одетый по сезону человек в тени. Характеристика душности погоды. При расчете учитывается влияние влажности воздуха и скорости ветра на теплоощущения человека.
Tes - Эффективная температура на солнце - температура, которую ощущает человек, с поправкой на солнечный нагрев. Характеристика знойности погоды. Зависит от высоты солнца над горизонтом, облачности и скорости ветра. Ночью, в пасмурную погоду, а также при ветре 12 м/с и более поправка равна нулю.
P - Атмосферное давление - приведенное к уровню моря атмосферное давление.
Po - Атмосферное давление - измеренное на уровне метеостанции атмосферное давление.
Tmin - Минимальная температура - минимум температуры воздуха на высоте 2 м над землей.
Tmax - Максимальная температура - максимум температуры воздуха на высоте 2 м над землей.
R - Количество осадков - Количество выпавших осадков за период времени, мм. При наведении курсора мыши на число - период времени, за который выпало указанное количество осадков.
R24 - Количество осадков - Количество выпавших осадков за 24 часа, мм.
S - Снежный покров - Высота снежного покрова, см. При наведении курсора мыши на число - состояние снежного покрова и степень покрытия местности в баллах.